Location: Florence
(33.9745°N, 118.2481°W)
Time: 20:22:54
(UTC+00:00)

Cosmos 1867 - Pass Details

Date: 23 March 2023
Orbit: 777 x 798 km, 65.0° (Epoch: 05 June)

Event Time Altitude Azimuth Distance (km) Brightness Sun altitude
Rises 12:59:12 0° 330° (NNW) 3,305 6.6 -11.9°
Reaches altitude 10° 13:01:38 10° 330° (NNW) 2,372 5.8 -11.4°
Maximum altitude 13:07:06 83° 243° (WSW) 806 3.5 -10.3°
Drops below altitude 10° 13:12:32 10° 156° (SSE) 2,355 6.2 -9.1°
Sets 13:14:56 0° 155° (SSE) 3,279 7.0 -8.7°
